{"data":{"norad_id":53863,"intl_designator":"2022-114AX","name":"STARLINK-4788","alt_names":[],"object_type":"PAYLOAD","status":"ACTIVE","operator":null,"country":"US","launch_date":"2022-09-19","launch_site_code":"AFETR","launch_vehicle":null,"mission":null,"orbit_class":"UNKNOWN","rcs_meters":null,"size_class":null,"mass_kg":null,"dimensions":null,"purposes":["comms"],"wikipedia_slug":null,"has_3d_model":false,"image_url":null,"decayed_at":null,"tle_current":{"epoch":"2026-09-20T04:49:31.105344Z","epoch_age_seconds":109898,"freshness":"FRESH","line1":"1 53863U 22114AX  26263.20105446  .00000540  00000+0  29178-4 0  9995","line2":"2 53863  53.1588 119.9545 0001367  83.4196 276.6961 15.31702626222623","mean_motion":15.31702626,"eccentricity":0.0001367,"inclination_deg":53.1588,"raan_deg":119.9545,"arg_perigee_deg":83.4196,"mean_anomaly_deg":276.6961,"bstar":2.9178e-5,"rev_number":22262,"period_min":94.013026781871,"perigee_km":469.79592685231,"apogee_km":471.66840768264,"semimajor_km":6848.8691672675,"source":"CELESTRAK","updated_at":"2026-09-21T09:00:33.025711Z"}}}